{"data":{"norad_id":66272,"intl_designator":"2025-247H","name":"STARLINK-35741","alt_names":[],"object_type":"PAYLOAD","status":"ACTIVE","operator":null,"country":"US","launch_date":"2025-10-31","launch_site_code":"AFWTR","launch_vehicle":null,"mission":null,"orbit_class":"UNKNOWN","rcs_meters":null,"size_class":null,"mass_kg":null,"dimensions":null,"purposes":["comms"],"wikipedia_slug":null,"has_3d_model":false,"image_url":null,"decayed_at":null,"tle_current":{"epoch":"2026-09-20T12:57:16.520256Z","epoch_age_seconds":93279,"freshness":"FRESH","line1":"1 66272U 25247H   26263.53977454  .00023912  00000+0  71639-3 0  9991","line2":"2 66272  53.1597   1.5952 0000913  75.9291 284.1813 15.34408616 50980","mean_motion":15.34408616,"eccentricity":9.13e-5,"inclination_deg":53.1597,"raan_deg":1.5952,"arg_perigee_deg":75.9291,"mean_anomaly_deg":284.1813,"bstar":0.00071639,"rev_number":5098,"period_min":93.847231108092,"perigee_km":462.05306538332,"apogee_km":463.30219813508,"semimajor_km":6840.8146317592,"source":"CELESTRAK","updated_at":"2026-09-21T09:00:35.868036Z"}}}